EZY35YH EGPH-GCTS

Flight info

Callsign EZY35YH
Flight time 4h 35m
Altitude 34000
Route GOSAM DCT TRN DCT DEGOS/M076F340 DCT LASNO T9 BEGAS/N0437F340 DCT RIPEL DCT ORTIS
Aircraft A319/M-SDE2E3FGIJ1RWXYZ/LB1

Departure

Time 2026-05-05 10:45
Airport Edinburgh Airport (EGPH)

Arrival

Time 2026-05-05 15:21
Airport Tenerife Sur Airport (GCTS)
Time Latitude Longitude Altitude Speed Heading
2026-05-05 10:16 55.94918 -3.36427 117 ft 0 kts 148°
2026-05-05 10:36 55.94924 -3.36433 116 ft 4 kts 149°
2026-05-05 10:37 55.94947 -3.36456 113 ft 4 kts 158°
2026-05-05 10:37 55.94973 -3.36468 112 ft 4 kts 181°
2026-05-05 10:37 55.94993 -3.36457 112 ft 2 kts 237°
2026-05-05 10:37 55.94997 -3.36448 112 ft 0 kts 239°
2026-05-05 10:39 55.94994 -3.36456 116 ft 3 kts 239°
2026-05-05 10:39 55.94970 -3.36527 115 ft 9 kts 239°
2026-05-05 10:40 55.94937 -3.36624 116 ft 9 kts 239°
2026-05-05 10:40 55.94907 -3.36713 116 ft 8 kts 239°
2026-05-05 10:40 55.94904 -3.36805 116 ft 8 kts 303°
2026-05-05 10:40 55.94922 -3.36899 116 ft 10 kts 259°
2026-05-05 10:41 55.94884 -3.37023 114 ft 13 kts 239°
2026-05-05 10:41 55.94835 -3.37167 116 ft 15 kts 238°
2026-05-05 10:41 55.94776 -3.37340 116 ft 16 kts 238°
2026-05-05 10:41 55.94719 -3.37507 116 ft 16 kts 239°
2026-05-05 10:42 55.94610 -3.37831 115 ft 15 kts 239°
2026-05-05 10:42 55.94553 -3.38000 115 ft 18 kts 239°
2026-05-05 10:42 55.94483 -3.38203 113 ft 19 kts 238°
2026-05-05 10:43 55.94416 -3.38403 113 ft 18 kts 239°
2026-05-05 10:43 55.94351 -3.38593 115 ft 18 kts 238°
2026-05-05 10:43 55.94299 -3.38747 113 ft 11 kts 239°
2026-05-05 10:43 55.94282 -3.38851 116 ft 9 kts 290°
2026-05-05 10:44 55.94329 -3.38913 114 ft 10 kts 329°
2026-05-05 10:44 55.94387 -3.38971 113 ft 7 kts 341°
2026-05-05 10:44 55.94433 -3.38919 114 ft 12 kts 56°
2026-05-05 10:44 55.94546 -3.38587 113 ft 67 kts 59°
2026-05-05 10:45 55.94915 -3.37496 112 ft 135 kts 59°
2026-05-05 10:45 55.95479 -3.35826 312 ft 166 kts 58°
2026-05-05 10:45 55.96064 -3.34131 1200 ft 156 kts 54°
2026-05-05 10:45 55.96750 -3.32664 1784 ft 158 kts 40°
2026-05-05 10:46 55.97633 -3.31278 2045 ft 180 kts 38°
2026-05-05 10:46 55.98657 -3.29742 2295 ft 205 kts 39°
2026-05-05 10:46 55.99887 -3.28265 2623 ft 228 kts 18°
2026-05-05 10:46 56.01513 -3.28257 3125 ft 245 kts 340°
2026-05-05 10:47 56.02873 -3.30126 3895 ft 256 kts 304°
2026-05-05 10:47 56.03354 -3.33193 4767 ft 263 kts 270°
2026-05-05 10:47 56.03116 -3.36452 5658 ft 266 kts 258°
2026-05-05 10:47 56.02648 -3.39670 6560 ft 269 kts 255°
2026-05-05 10:48 56.02105 -3.42884 7383 ft 270 kts 254°
2026-05-05 10:48 56.01558 -3.46110 8224 ft 272 kts 256°
2026-05-05 10:48 56.01031 -3.49362 9044 ft 274 kts 256°
2026-05-05 10:48 56.00523 -3.52663 9856 ft 276 kts 257°
2026-05-05 10:49 56.00024 -3.56039 10324 ft 291 kts 257°
2026-05-05 10:49 55.99501 -3.59682 10523 ft 313 kts 258°
2026-05-05 10:49 55.98956 -3.63512 11046 ft 322 kts 258°
2026-05-05 10:49 55.98401 -3.67401 11760 ft 325 kts 257°
2026-05-05 10:50 55.97839 -3.71323 12482 ft 327 kts 257°
2026-05-05 10:50 55.97271 -3.75274 13171 ft 330 kts 257°
2026-05-05 10:50 55.96706 -3.79192 13879 ft 332 kts 257°
2026-05-05 10:50 55.96125 -3.83210 14491 ft 334 kts 257°
2026-05-05 10:51 55.95538 -3.87252 15095 ft 337 kts 257°
2026-05-05 10:51 55.94944 -3.91325 15691 ft 340 kts 257°
2026-05-05 10:51 55.94346 -3.95427 16280 ft 343 kts 257°
2026-05-05 10:51 55.93527 -3.99475 16852 ft 349 kts 245°
2026-05-05 10:52 55.92185 -4.03064 17408 ft 356 kts 231°
2026-05-05 10:52 55.90333 -4.06043 17976 ft 363 kts 218°
2026-05-05 10:52 55.88230 -4.08604 18535 ft 366 kts 217°
2026-05-05 10:52 55.86117 -4.11183 19031 ft 369 kts 217°
2026-05-05 10:53 55.83989 -4.13789 19532 ft 372 kts 217°
2026-05-05 10:53 55.81845 -4.16416 20031 ft 375 kts 217°
2026-05-05 10:53 55.79681 -4.19060 20523 ft 378 kts 217°
2026-05-05 10:53 55.77500 -4.21727 21014 ft 381 kts 217°
2026-05-05 10:54 55.75342 -4.24393 21503 ft 384 kts 217°
2026-05-05 10:54 55.73147 -4.27125 21975 ft 387 kts 218°
2026-05-05 10:54 55.70931 -4.29888 22443 ft 390 kts 218°
2026-05-05 10:54 55.68703 -4.32669 22902 ft 393 kts 217°
2026-05-05 10:55 55.66451 -4.35472 23347 ft 396 kts 217°
2026-05-05 10:55 55.64184 -4.38281 23768 ft 399 kts 217°
2026-05-05 10:55 55.61896 -4.41109 24148 ft 401 kts 217°
2026-05-05 10:55 55.59589 -4.43947 24529 ft 403 kts 217°
2026-05-05 10:56 55.57307 -4.46747 24907 ft 405 kts 217°
2026-05-05 10:56 55.54984 -4.49595 25268 ft 407 kts 217°
2026-05-05 10:56 55.52647 -4.52459 25623 ft 409 kts 217°
2026-05-05 10:56 55.50301 -4.55332 25981 ft 411 kts 217°
2026-05-05 10:57 55.47945 -4.58215 26353 ft 413 kts 217°
2026-05-05 10:57 55.45606 -4.61069 26712 ft 414 kts 217°
2026-05-05 10:57 55.43226 -4.63965 27058 ft 416 kts 216°
2026-05-05 10:57 55.40833 -4.66873 27450 ft 417 kts 216°
2026-05-05 10:58 55.38435 -4.69780 27829 ft 419 kts 216°
2026-05-05 10:58 55.36031 -4.72689 28170 ft 420 kts 216°
2026-05-05 10:58 55.33612 -4.75619 28518 ft 422 kts 216°
2026-05-05 10:58 55.31284 -4.78770 28841 ft 422 kts 224°
2026-05-05 10:59 55.29249 -4.82492 29166 ft 423 kts 230°
2026-05-05 10:59 55.27317 -4.86317 29488 ft 425 kts 230°
2026-05-05 10:59 55.25326 -4.90248 29799 ft 427 kts 230°
2026-05-05 10:59 55.23374 -4.94090 30094 ft 428 kts 230°
2026-05-05 11:00 55.21381 -4.97999 30331 ft 431 kts 230°
2026-05-05 11:00 55.19372 -5.01924 30549 ft 433 kts 229°
2026-05-05 11:00 55.17356 -5.05854 30800 ft 435 kts 229°
2026-05-05 11:00 55.15332 -5.09790 31147 ft 433 kts 229°
2026-05-05 11:01 55.13321 -5.13689 31575 ft 430 kts 229°
2026-05-05 11:01 55.11323 -5.17564 31959 ft 428 kts 229°
2026-05-05 11:01 55.09331 -5.21430 32322 ft 427 kts 229°
2026-05-05 11:01 55.07376 -5.25221 32671 ft 425 kts 229°
2026-05-05 11:02 55.05393 -5.29065 33028 ft 424 kts 229°
2026-05-05 11:02 55.03412 -5.32896 33377 ft 423 kts 229°
2026-05-05 11:02 55.01436 -5.36699 33725 ft 422 kts 229°
2026-05-05 11:02 54.99487 -5.40444 34030 ft 422 kts 229°
2026-05-05 11:03 54.97523 -5.44219 34094 ft 417 kts 229°
2026-05-05 11:03 54.93638 -5.51680 34097 ft 415 kts 229°
2026-05-05 11:04 54.89769 -5.59091 34098 ft 415 kts 229°
2026-05-05 11:04 54.85870 -5.66519 34096 ft 415 kts 229°
2026-05-05 11:05 54.81970 -5.73913 34105 ft 415 kts 229°
2026-05-05 11:05 54.78097 -5.81246 34105 ft 414 kts 229°
2026-05-05 11:06 54.74191 -5.88631 34107 ft 414 kts 229°
2026-05-05 11:06 54.70306 -5.95939 34104 ft 414 kts 229°
2026-05-05 11:07 54.66390 -6.03288 34103 ft 414 kts 229°
2026-05-05 11:07 54.62497 -6.10586 34101 ft 414 kts 229°
2026-05-05 11:08 54.58576 -6.17902 34087 ft 414 kts 229°
2026-05-05 11:08 54.54677 -6.25152 34096 ft 414 kts 228°
2026-05-05 11:09 54.50755 -6.32414 34100 ft 414 kts 228°
2026-05-05 11:09 54.46827 -6.39662 34099 ft 413 kts 228°
2026-05-05 11:10 54.42902 -6.46898 34099 ft 414 kts 229°
2026-05-05 11:10 54.38989 -6.54095 34089 ft 415 kts 228°
2026-05-05 11:11 54.35038 -6.61338 34086 ft 415 kts 228°
2026-05-05 11:11 54.31076 -6.68575 34068 ft 416 kts 228°
2026-05-05 11:12 54.27135 -6.75739 34083 ft 415 kts 228°
2026-05-05 11:12 54.23176 -6.82934 34089 ft 415 kts 228°
2026-05-05 11:13 54.18796 -6.89378 34093 ft 417 kts 212°
2026-05-05 11:13 54.13404 -6.92989 34082 ft 423 kts 196°
2026-05-05 11:14 54.07675 -6.95405 34077 ft 424 kts 196°
2026-05-05 11:14 54.01946 -6.97826 34073 ft 424 kts 196°
2026-05-05 11:15 53.96243 -7.00224 34086 ft 423 kts 196°
2026-05-05 11:15 53.91483 -7.02226 34088 ft 423 kts 196°
2026-05-05 11:16 53.84833 -7.05028 34083 ft 423 kts 196°
2026-05-05 11:16 53.80072 -7.07019 34081 ft 423 kts 196°
2026-05-05 11:17 53.74349 -7.09388 34078 ft 422 kts 196°
2026-05-05 11:17 53.68676 -7.11745 34079 ft 422 kts 196°
2026-05-05 11:18 53.62965 -7.14116 34081 ft 421 kts 196°
2026-05-05 11:18 53.57294 -7.16462 34079 ft 421 kts 196°
2026-05-05 11:19 53.51596 -7.18804 34065 ft 421 kts 196°
2026-05-05 11:19 53.45894 -7.21147 34072 ft 420 kts 196°
2026-05-05 11:20 53.40236 -7.23476 34070 ft 421 kts 196°
2026-05-05 11:20 53.34527 -7.25812 34062 ft 422 kts 195°
2026-05-05 11:21 53.28833 -7.28124 34066 ft 423 kts 195°
2026-05-05 11:21 53.23099 -7.30452 34066 ft 424 kts 195°
2026-05-05 11:22 53.17348 -7.32780 34068 ft 425 kts 195°
2026-05-05 11:22 53.11635 -7.35085 34072 ft 425 kts 195°
2026-05-05 11:23 53.05870 -7.37414 34073 ft 425 kts 195°
2026-05-05 11:23 53.00151 -7.39725 34069 ft 425 kts 195°
2026-05-05 11:24 52.94402 -7.42024 34083 ft 424 kts 195°
2026-05-05 11:24 52.88661 -7.44311 34086 ft 423 kts 195°
2026-05-05 11:25 52.82961 -7.46573 34086 ft 423 kts 195°
2026-05-05 11:25 52.77223 -7.48868 34089 ft 423 kts 195°
2026-05-05 11:26 52.71497 -7.51150 34085 ft 423 kts 195°
2026-05-05 11:26 52.65795 -7.53405 34083 ft 423 kts 195°
2026-05-05 11:27 52.60047 -7.55659 34076 ft 424 kts 195°
2026-05-05 11:27 52.54329 -7.57907 34076 ft 425 kts 195°
2026-05-05 11:28 52.48570 -7.60170 34079 ft 425 kts 195°
2026-05-05 11:28 52.42848 -7.62413 34086 ft 425 kts 195°
2026-05-05 11:29 52.37083 -7.64660 34086 ft 425 kts 195°
2026-05-05 11:29 52.31315 -7.66899 34092 ft 425 kts 195°
2026-05-05 11:30 52.25583 -7.69126 34087 ft 425 kts 195°
2026-05-05 11:30 52.19820 -7.71369 34095 ft 425 kts 195°
2026-05-05 11:31 52.14050 -7.73596 34088 ft 425 kts 195°
2026-05-05 11:31 52.08307 -7.75800 34090 ft 425 kts 195°
2026-05-05 11:32 52.02535 -7.78014 34088 ft 426 kts 194°
2026-05-05 11:32 51.96754 -7.80229 34083 ft 426 kts 195°
2026-05-05 11:33 51.90994 -7.82432 34074 ft 427 kts 195°
2026-05-05 11:33 51.85195 -7.84638 34080 ft 427 kts 194°
2026-05-05 11:34 51.79427 -7.86830 34084 ft 428 kts 195°
2026-05-05 11:34 51.73633 -7.89043 34081 ft 428 kts 194°
2026-05-05 11:35 51.67820 -7.91241 34078 ft 429 kts 194°
2026-05-05 11:35 51.61999 -7.93434 34081 ft 429 kts 194°
2026-05-05 11:36 51.56171 -7.95619 34086 ft 429 kts 194°
2026-05-05 11:36 51.50351 -7.97802 34070 ft 431 kts 194°
2026-05-05 11:37 51.44528 -7.99987 34080 ft 432 kts 194°
2026-05-05 11:37 51.38676 -8.02171 34079 ft 434 kts 194°
2026-05-05 11:38 51.32770 -8.04370 34081 ft 435 kts 194°
2026-05-05 11:38 51.26864 -8.06554 34080 ft 436 kts 193°
2026-05-05 11:39 51.20972 -8.08729 34082 ft 438 kts 193°
2026-05-05 11:39 51.15018 -8.10925 34085 ft 438 kts 194°
2026-05-05 11:40 51.09102 -8.13111 34098 ft 438 kts 193°
2026-05-05 11:40 51.03153 -8.15296 34099 ft 438 kts 193°
2026-05-05 11:41 50.97227 -8.17460 34093 ft 439 kts 193°
2026-05-05 11:41 50.91261 -8.19635 34092 ft 440 kts 193°
2026-05-05 11:42 50.85280 -8.21815 34091 ft 441 kts 193°
2026-05-05 11:42 50.79291 -8.23998 34097 ft 441 kts 193°
2026-05-05 11:43 50.73334 -8.26155 34096 ft 441 kts 193°
2026-05-05 11:43 50.67342 -8.28314 34098 ft 441 kts 193°
2026-05-05 11:44 50.61384 -8.30466 34104 ft 441 kts 193°
2026-05-05 11:44 50.55388 -8.32623 34093 ft 441 kts 193°
2026-05-05 11:45 50.49397 -8.34766 34089 ft 442 kts 193°
2026-05-05 11:45 50.43415 -8.36906 34086 ft 442 kts 193°
2026-05-05 11:46 50.37405 -8.39047 34094 ft 442 kts 193°
2026-05-05 11:46 50.31427 -8.41170 34095 ft 442 kts 193°
2026-05-05 11:47 50.25418 -8.43304 34083 ft 442 kts 193°
2026-05-05 11:47 50.19440 -8.45431 34081 ft 443 kts 193°
2026-05-05 11:48 50.10416 -8.48623 34093 ft 443 kts 193°
2026-05-05 11:48 50.04380 -8.50744 34083 ft 444 kts 192°
2026-05-05 11:49 49.98356 -8.52848 34080 ft 445 kts 192°
2026-05-05 11:49 49.92288 -8.54969 34079 ft 446 kts 193°
2026-05-05 11:50 49.86254 -8.57076 34091 ft 447 kts 192°
2026-05-05 11:50 49.80166 -8.59196 34078 ft 449 kts 192°
2026-05-05 11:51 49.74080 -8.61302 34061 ft 450 kts 193°
2026-05-05 11:51 49.67959 -8.63424 34079 ft 450 kts 193°
2026-05-05 11:52 49.61877 -8.65538 34086 ft 450 kts 192°
2026-05-05 11:52 49.55757 -8.67640 34087 ft 451 kts 192°
2026-05-05 11:53 49.49616 -8.69742 34083 ft 452 kts 192°
2026-05-05 11:53 49.43465 -8.71849 34086 ft 452 kts 192°
2026-05-05 11:54 49.37319 -8.73958 34082 ft 454 kts 192°
2026-05-05 11:54 49.31138 -8.76068 34080 ft 455 kts 192°
2026-05-05 11:55 49.24978 -8.78153 34085 ft 456 kts 192°
2026-05-05 11:55 49.18751 -8.80259 34092 ft 457 kts 192°
2026-05-05 11:56 49.12561 -8.82365 34079 ft 459 kts 192°
2026-05-05 11:56 49.06321 -8.84487 34086 ft 460 kts 192°
2026-05-05 11:57 49.00061 -8.86597 34087 ft 459 kts 192°
2026-05-05 11:57 48.93856 -8.88673 34098 ft 459 kts 192°
2026-05-05 11:58 48.87598 -8.90771 34087 ft 460 kts 192°
2026-05-05 11:58 48.81324 -8.92870 34086 ft 461 kts 192°
2026-05-05 11:59 48.75050 -8.94945 34088 ft 461 kts 192°
2026-05-05 11:59 48.68808 -8.97021 34080 ft 462 kts 192°
2026-05-05 12:00 48.62500 -8.99117 34079 ft 463 kts 192°
2026-05-05 12:00 48.56138 -9.00011 34081 ft 462 kts 179°
2026-05-05 12:01 48.49690 -9.00012 34082 ft 463 kts 179°
2026-05-05 12:01 48.43232 -9.00012 34091 ft 463 kts 179°
2026-05-05 12:02 48.36805 -9.00011 34090 ft 464 kts 179°
2026-05-05 12:02 48.30329 -9.00000 34094 ft 464 kts 179°
2026-05-05 12:03 48.23907 -8.99998 34100 ft 464 kts 179°
2026-05-05 12:03 48.17432 -8.99999 34090 ft 465 kts 179°
2026-05-05 12:04 48.10951 -8.99991 34083 ft 465 kts 179°
2026-05-05 12:04 48.04496 -8.99984 34090 ft 465 kts 179°
2026-05-05 12:05 47.98021 -8.99992 34089 ft 465 kts 179°
2026-05-05 12:05 47.91536 -8.99993 34086 ft 465 kts 179°
2026-05-05 12:06 47.85099 -8.99992 34098 ft 464 kts 179°
2026-05-05 12:06 47.78626 -8.99997 34092 ft 464 kts 179°
2026-05-05 12:07 47.72192 -9.00006 34088 ft 463 kts 179°
2026-05-05 12:07 47.65723 -9.00005 34092 ft 463 kts 179°
2026-05-05 12:08 47.59280 -9.00005 34091 ft 463 kts 179°
2026-05-05 12:08 47.52870 -9.00005 34092 ft 463 kts 179°
2026-05-05 12:09 47.46413 -9.00002 34091 ft 463 kts 179°
2026-05-05 12:09 47.41055 -9.00000 34098 ft 462 kts 179°
2026-05-05 12:10 47.33566 -8.99992 34102 ft 462 kts 179°
2026-05-05 12:10 47.28175 -9.00000 34099 ft 461 kts 179°
2026-05-05 12:11 47.21775 -9.00013 34101 ft 461 kts 180°
2026-05-05 12:11 47.15406 -9.00011 34095 ft 460 kts 179°
2026-05-05 12:12 47.08977 -9.00005 34090 ft 460 kts 179°
2026-05-05 12:12 47.02602 -9.00004 34094 ft 460 kts 180°
2026-05-05 12:13 46.96176 -9.00003 34085 ft 460 kts 180°
2026-05-05 12:13 46.89770 -9.00005 34081 ft 461 kts 180°
2026-05-05 12:14 46.83350 -9.00009 34055 ft 461 kts 180°
2026-05-05 12:14 46.76951 -9.00009 34060 ft 462 kts 180°
2026-05-05 12:15 46.70492 -8.99998 34056 ft 464 kts 180°
2026-05-05 12:15 46.64069 -9.00002 34061 ft 465 kts 180°
2026-05-05 12:16 46.57576 -9.00006 34081 ft 465 kts 180°
2026-05-05 12:16 46.51143 -9.00011 34079 ft 465 kts 180°
2026-05-05 12:17 46.44672 -9.00003 34077 ft 464 kts 180°
2026-05-05 12:17 46.38199 -9.00007 34076 ft 464 kts 180°
2026-05-05 12:18 46.31765 -9.00007 34074 ft 464 kts 180°
2026-05-05 12:18 46.25307 -8.99998 34073 ft 464 kts 180°
2026-05-05 12:19 46.18842 -8.99986 34069 ft 463 kts 180°
2026-05-05 12:19 46.12380 -8.99997 34066 ft 463 kts 180°
2026-05-05 12:20 46.05967 -9.00008 34069 ft 463 kts 180°
2026-05-05 12:20 45.99493 -9.00010 34080 ft 464 kts 180°
2026-05-05 12:21 45.93074 -9.00001 34077 ft 464 kts 180°
2026-05-05 12:21 45.86617 -9.00000 34076 ft 463 kts 180°
2026-05-05 12:22 45.80152 -8.99997 34083 ft 463 kts 180°
2026-05-05 12:22 45.73709 -8.99990 34075 ft 463 kts 180°
2026-05-05 12:23 45.67299 -8.99994 34073 ft 463 kts 181°
2026-05-05 12:23 45.60851 -8.99998 34069 ft 463 kts 181°
2026-05-05 12:24 45.54379 -8.99996 34032 ft 464 kts 181°
2026-05-05 12:24 45.47939 -9.00012 34046 ft 466 kts 181°
2026-05-05 12:25 45.41437 -9.00016 34059 ft 467 kts 181°
2026-05-05 12:25 45.34928 -9.00008 34063 ft 468 kts 181°
2026-05-05 12:26 45.28436 -9.00007 34068 ft 468 kts 181°
2026-05-05 12:26 45.21920 -8.99993 34075 ft 468 kts 181°
2026-05-05 12:27 45.15403 -8.99991 34076 ft 467 kts 181°
2026-05-05 12:27 45.08899 -9.00010 34072 ft 467 kts 181°
2026-05-05 12:28 45.05678 -9.00344 34060 ft 463 kts 196°
2026-05-05 12:28 45.02656 -9.01820 34065 ft 457 kts 206°
2026-05-05 12:28 44.96571 -9.04421 34064 ft 462 kts 197°
2026-05-05 12:29 44.90364 -9.06776 34055 ft 460 kts 205°
2026-05-05 12:29 44.84548 -9.10471 34066 ft 457 kts 210°
2026-05-05 12:30 44.78943 -9.14592 34039 ft 456 kts 212°
2026-05-05 12:30 44.73294 -9.18727 34047 ft 457 kts 211°
2026-05-05 12:31 44.67615 -9.22694 34054 ft 458 kts 210°
2026-05-05 12:31 44.61868 -9.26634 34059 ft 459 kts 210°
2026-05-05 12:32 44.56119 -9.30586 34065 ft 459 kts 211°
2026-05-05 12:32 44.50388 -9.34553 34073 ft 459 kts 211°
2026-05-05 12:33 44.44698 -9.38486 34073 ft 459 kts 211°
2026-05-05 12:33 44.38965 -9.42432 34078 ft 459 kts 211°
2026-05-05 12:34 44.33228 -9.46372 34037 ft 459 kts 211°
2026-05-05 12:34 44.27495 -9.50298 34068 ft 462 kts 211°
2026-05-05 12:35 44.21705 -9.54251 34078 ft 462 kts 211°
2026-05-05 12:35 44.15919 -9.58190 34079 ft 462 kts 211°
2026-05-05 12:36 44.10171 -9.62100 34076 ft 462 kts 212°
2026-05-05 12:36 44.04385 -9.66031 34082 ft 462 kts 211°
2026-05-05 12:37 43.98632 -9.69932 34094 ft 462 kts 212°
2026-05-05 12:37 43.92847 -9.73840 34101 ft 461 kts 212°
2026-05-05 12:38 43.87100 -9.77707 34098 ft 461 kts 212°
2026-05-05 12:38 43.81311 -9.81591 34100 ft 460 kts 212°
2026-05-05 12:39 43.75553 -9.85462 34074 ft 459 kts 212°
2026-05-05 12:39 43.69851 -9.89292 34095 ft 457 kts 212°
2026-05-05 12:40 43.64120 -9.93127 34101 ft 457 kts 212°
2026-05-05 12:40 43.58392 -9.96956 34086 ft 456 kts 212°
2026-05-05 12:41 43.52719 -10.00738 34123 ft 455 kts 212°
2026-05-05 12:41 43.47020 -10.04518 34127 ft 454 kts 212°
2026-05-05 12:42 43.41314 -10.08292 34122 ft 453 kts 212°
2026-05-05 12:42 43.35659 -10.12031 34121 ft 452 kts 212°
2026-05-05 12:43 43.29974 -10.15787 34130 ft 452 kts 212°
2026-05-05 12:43 43.24332 -10.19503 34128 ft 452 kts 212°
2026-05-05 12:44 43.18653 -10.23231 34127 ft 450 kts 211°
2026-05-05 12:44 43.13047 -10.26901 34137 ft 447 kts 211°
2026-05-05 12:45 43.07436 -10.30576 34149 ft 445 kts 211°
2026-05-05 12:45 43.01889 -10.34204 34148 ft 444 kts 211°
2026-05-05 12:46 42.96321 -10.37836 34146 ft 443 kts 211°
2026-05-05 12:46 42.90756 -10.41459 34144 ft 442 kts 211°
2026-05-05 12:47 42.85233 -10.45043 34151 ft 441 kts 211°
2026-05-05 12:47 42.79685 -10.48644 34149 ft 441 kts 211°
2026-05-05 12:48 42.74129 -10.52239 34123 ft 440 kts 211°
2026-05-05 12:48 42.68626 -10.55787 34144 ft 439 kts 211°
2026-05-05 12:49 42.63106 -10.59346 34141 ft 438 kts 211°
2026-05-05 12:49 42.57604 -10.62888 34155 ft 436 kts 211°
2026-05-05 12:50 42.52159 -10.66391 34152 ft 435 kts 211°
2026-05-05 12:50 42.46687 -10.69892 34152 ft 434 kts 211°
2026-05-05 12:51 42.41226 -10.73381 34153 ft 433 kts 211°
2026-05-05 12:51 42.35802 -10.76840 34151 ft 432 kts 211°
2026-05-05 12:52 42.30349 -10.80317 34150 ft 432 kts 211°
2026-05-05 12:52 42.24929 -10.83739 34153 ft 432 kts 210°
2026-05-05 12:53 42.19455 -10.87120 34152 ft 432 kts 210°
2026-05-05 12:53 42.13963 -10.90491 34153 ft 432 kts 210°
2026-05-05 12:54 42.05800 -10.95527 34136 ft 430 kts 210°
2026-05-05 12:55 42.00355 -10.98883 34164 ft 429 kts 210°
2026-05-05 12:55 41.94965 -11.02204 34167 ft 427 kts 210°
2026-05-05 12:56 41.89554 -11.05523 34165 ft 427 kts 210°
2026-05-05 12:56 41.84142 -11.08829 34153 ft 426 kts 209°
2026-05-05 12:57 41.78789 -11.12093 34157 ft 424 kts 209°
2026-05-05 12:57 41.73396 -11.15393 34156 ft 424 kts 209°
2026-05-05 12:58 41.68053 -11.18650 34160 ft 424 kts 209°
2026-05-05 12:58 41.62681 -11.21911 34150 ft 423 kts 209°
2026-05-05 12:59 41.57308 -11.25180 34155 ft 423 kts 209°
2026-05-05 12:59 41.51975 -11.28407 34159 ft 423 kts 209°
2026-05-05 13:00 41.43957 -11.33232 34149 ft 422 kts 208°
2026-05-05 13:01 41.34144 -11.39153 34146 ft 422 kts 208°
2026-05-05 13:01 41.27913 -11.42893 34148 ft 422 kts 208°
2026-05-05 13:02 41.23459 -11.45555 34153 ft 422 kts 208°
2026-05-05 13:02 41.18097 -11.48765 34141 ft 421 kts 208°
2026-05-05 13:03 41.12746 -11.51972 34143 ft 421 kts 208°
2026-05-05 13:03 41.07418 -11.55155 34153 ft 422 kts 208°
2026-05-05 13:04 41.02050 -11.58341 34154 ft 422 kts 208°
2026-05-05 13:04 40.96680 -11.61526 34146 ft 422 kts 208°
2026-05-05 13:05 40.91357 -11.64684 34162 ft 421 kts 208°
2026-05-05 13:05 40.86008 -11.67850 34169 ft 421 kts 208°
2026-05-05 13:06 40.80679 -11.70995 34172 ft 420 kts 208°
2026-05-05 13:06 40.75329 -11.74150 34172 ft 420 kts 208°
2026-05-05 13:07 40.70013 -11.77287 34171 ft 419 kts 208°
2026-05-05 13:07 40.64678 -11.80430 34175 ft 419 kts 208°
2026-05-05 13:08 40.59351 -11.83544 34174 ft 418 kts 208°
2026-05-05 13:08 40.54066 -11.86651 34175 ft 418 kts 208°
2026-05-05 13:09 40.48756 -11.89765 34171 ft 417 kts 208°
2026-05-05 13:09 40.43448 -11.92860 34174 ft 417 kts 208°
2026-05-05 13:10 40.38133 -11.95957 34174 ft 417 kts 208°
2026-05-05 13:10 40.32866 -11.99015 34166 ft 416 kts 208°
2026-05-05 13:11 40.27564 -12.02095 34157 ft 416 kts 208°
2026-05-05 13:11 40.22265 -12.05163 34155 ft 416 kts 208°
2026-05-05 13:12 40.16975 -12.08230 34167 ft 416 kts 208°
2026-05-05 13:12 40.11711 -12.11270 34171 ft 415 kts 208°
2026-05-05 13:13 40.06420 -12.14330 34165 ft 415 kts 208°
2026-05-05 13:13 40.01125 -12.17385 34167 ft 415 kts 208°
2026-05-05 13:14 39.95858 -12.20409 34176 ft 415 kts 208°
2026-05-05 13:14 39.90560 -12.23448 34178 ft 415 kts 208°
2026-05-05 13:15 39.85271 -12.26478 34175 ft 415 kts 208°
2026-05-05 13:15 39.80019 -12.29473 34156 ft 415 kts 208°
2026-05-05 13:16 39.74729 -12.32495 34164 ft 415 kts 208°
2026-05-05 13:16 39.69443 -12.35509 34176 ft 415 kts 208°
2026-05-05 13:17 39.64157 -12.38529 34179 ft 415 kts 208°
2026-05-05 13:17 39.58866 -12.41533 34175 ft 415 kts 207°
2026-05-05 13:18 39.53599 -12.44516 34169 ft 415 kts 207°
2026-05-05 13:18 39.48300 -12.47503 34174 ft 415 kts 207°
2026-05-05 13:19 39.43030 -12.50485 34171 ft 415 kts 207°
2026-05-05 13:19 39.37731 -12.53488 34174 ft 415 kts 207°
2026-05-05 13:20 39.32434 -12.56480 34170 ft 415 kts 207°
2026-05-05 13:20 39.27170 -12.59431 34180 ft 414 kts 207°
2026-05-05 13:21 39.21878 -12.62398 34186 ft 413 kts 207°
2026-05-05 13:21 39.16634 -12.65343 34191 ft 413 kts 207°
2026-05-05 13:22 39.11361 -12.68295 34188 ft 413 kts 207°
2026-05-05 13:22 39.06107 -12.71230 34208 ft 410 kts 208°
2026-05-05 13:23 39.00905 -12.74132 34216 ft 408 kts 208°
2026-05-05 13:23 38.95699 -12.77048 34218 ft 407 kts 208°
2026-05-05 13:24 38.90497 -12.79940 34209 ft 406 kts 208°
2026-05-05 13:24 38.85335 -12.82798 34197 ft 405 kts 209°
2026-05-05 13:25 38.80166 -12.85660 34213 ft 403 kts 209°
2026-05-05 13:25 38.75054 -12.88485 34212 ft 402 kts 209°
2026-05-05 13:26 38.69915 -12.91321 34207 ft 401 kts 209°
2026-05-05 13:26 38.64791 -12.94154 34209 ft 400 kts 209°
2026-05-05 13:27 38.59669 -12.96987 34201 ft 399 kts 209°
2026-05-05 13:27 38.54603 -12.99767 34217 ft 398 kts 209°
2026-05-05 13:28 38.49502 -13.02564 34217 ft 397 kts 209°
2026-05-05 13:28 38.44421 -13.05357 34209 ft 397 kts 209°
2026-05-05 13:29 38.39374 -13.08116 34209 ft 397 kts 209°
2026-05-05 13:29 38.34290 -13.10904 34190 ft 397 kts 208°
2026-05-05 13:30 38.29234 -13.13655 34195 ft 397 kts 208°
2026-05-05 13:30 38.24143 -13.16427 34197 ft 397 kts 208°
2026-05-05 13:31 38.19054 -13.19196 34197 ft 397 kts 208°
2026-05-05 13:31 38.13990 -13.21947 34186 ft 397 kts 208°
2026-05-05 13:32 38.08900 -13.24717 34186 ft 398 kts 208°
2026-05-05 13:32 38.03790 -13.27487 34190 ft 398 kts 208°
2026-05-05 13:33 37.98716 -13.30239 34198 ft 399 kts 208°
2026-05-05 13:33 37.93595 -13.33005 34197 ft 399 kts 208°
2026-05-05 13:34 37.88494 -13.35754 34177 ft 400 kts 208°
2026-05-05 13:34 37.83364 -13.38507 34184 ft 401 kts 208°
2026-05-05 13:35 37.78202 -13.41276 34192 ft 402 kts 207°
2026-05-05 13:35 37.73075 -13.44027 34200 ft 402 kts 208°
2026-05-05 13:36 37.67911 -13.46800 34203 ft 403 kts 208°
2026-05-05 13:36 37.62767 -13.49562 34207 ft 403 kts 208°
2026-05-05 13:37 37.57602 -13.52325 34206 ft 402 kts 207°
2026-05-05 13:37 37.52469 -13.55053 34213 ft 402 kts 207°
2026-05-05 13:38 37.47311 -13.57792 34207 ft 402 kts 207°
2026-05-05 13:38 37.42156 -13.60537 34209 ft 401 kts 208°
2026-05-05 13:39 37.37008 -13.63278 34185 ft 401 kts 207°
2026-05-05 13:39 37.31881 -13.66004 34187 ft 402 kts 207°
2026-05-05 13:40 37.26701 -13.68752 34196 ft 403 kts 207°
2026-05-05 13:40 37.21544 -13.71474 34198 ft 403 kts 207°
2026-05-05 13:41 37.16383 -13.74196 34198 ft 404 kts 207°
2026-05-05 13:41 37.11204 -13.76924 34186 ft 404 kts 207°
2026-05-05 13:42 37.06005 -13.79659 34192 ft 405 kts 207°
2026-05-05 13:42 37.00800 -13.82396 34196 ft 405 kts 207°
2026-05-05 13:43 36.95627 -13.85107 34201 ft 405 kts 207°
2026-05-05 13:43 36.90409 -13.87849 34213 ft 405 kts 207°
2026-05-05 13:44 36.85217 -13.90569 34185 ft 406 kts 206°
2026-05-05 13:44 36.79992 -13.93305 34196 ft 407 kts 206°
2026-05-05 13:45 36.74749 -13.96042 34204 ft 407 kts 206°
2026-05-05 13:45 36.69535 -13.98744 34205 ft 408 kts 206°
2026-05-05 13:46 36.64283 -14.01471 34192 ft 408 kts 206°
2026-05-05 13:46 36.59037 -14.04193 34199 ft 407 kts 206°
2026-05-05 13:47 36.53827 -14.06903 34201 ft 407 kts 206°
2026-05-05 13:47 36.48597 -14.09620 34204 ft 407 kts 206°
2026-05-05 13:48 36.43360 -14.12336 34202 ft 407 kts 206°
2026-05-05 13:48 36.38159 -14.15013 34185 ft 407 kts 206°
2026-05-05 13:49 36.33801 -14.17249 34191 ft 407 kts 206°
2026-05-05 13:49 36.28574 -14.19946 34193 ft 406 kts 206°
2026-05-05 13:50 36.23345 -14.22643 34199 ft 407 kts 206°
2026-05-05 13:50 36.18110 -14.25336 34195 ft 407 kts 206°
2026-05-05 13:51 36.12895 -14.28002 34179 ft 407 kts 206°
2026-05-05 13:51 36.07655 -14.30682 34201 ft 407 kts 206°
2026-05-05 13:52 36.02425 -14.33357 34206 ft 406 kts 206°
2026-05-05 13:52 35.97221 -14.36023 34209 ft 406 kts 206°
2026-05-05 13:53 35.92003 -14.38688 34208 ft 406 kts 206°
2026-05-05 13:53 35.86803 -14.41326 34190 ft 406 kts 206°
2026-05-05 13:54 35.81575 -14.43982 34196 ft 405 kts 206°
2026-05-05 13:54 35.76391 -14.46619 34199 ft 405 kts 206°
2026-05-05 13:55 35.71176 -14.49265 34201 ft 405 kts 206°
2026-05-05 13:55 35.65949 -14.51909 34201 ft 405 kts 206°
2026-05-05 13:56 35.60768 -14.54523 34180 ft 405 kts 206°
2026-05-05 13:56 35.55547 -14.57161 34184 ft 404 kts 206°
2026-05-05 13:57 35.50338 -14.59795 34188 ft 404 kts 206°
2026-05-05 13:57 35.45163 -14.62401 34190 ft 404 kts 206°
2026-05-05 13:58 35.39953 -14.65018 34192 ft 404 kts 206°
2026-05-05 13:58 35.34734 -14.67630 34192 ft 404 kts 206°
2026-05-05 13:59 35.26941 -14.71525 34181 ft 405 kts 206°
2026-05-05 14:00 35.19105 -14.75449 34187 ft 405 kts 206°
2026-05-05 14:00 35.13913 -14.78053 34188 ft 405 kts 206°
2026-05-05 14:01 35.08681 -14.80661 34187 ft 405 kts 206°
2026-05-05 14:01 35.03441 -14.83258 34184 ft 406 kts 206°
2026-05-05 14:02 34.98238 -14.85842 34185 ft 406 kts 206°
2026-05-05 14:02 34.92996 -14.88446 34184 ft 406 kts 206°
2026-05-05 14:03 34.87801 -14.91027 34185 ft 406 kts 206°
2026-05-05 14:03 34.82561 -14.93624 34188 ft 406 kts 206°
2026-05-05 14:04 34.77305 -14.96229 34167 ft 407 kts 205°
2026-05-05 14:04 34.72078 -14.98806 34169 ft 408 kts 205°
2026-05-05 14:05 34.66798 -15.01404 34175 ft 408 kts 205°
2026-05-05 14:05 34.61555 -15.03982 34179 ft 408 kts 205°
2026-05-05 14:06 34.56281 -15.06580 34180 ft 409 kts 206°
2026-05-05 14:06 34.51031 -15.09159 34168 ft 409 kts 205°
2026-05-05 14:07 34.45743 -15.11746 34167 ft 410 kts 205°
2026-05-05 14:07 34.40472 -15.14324 34172 ft 410 kts 205°
2026-05-05 14:08 34.35174 -15.16922 34176 ft 410 kts 205°
2026-05-05 14:08 34.29869 -15.19512 34180 ft 411 kts 205°
2026-05-05 14:09 34.24557 -15.22106 34146 ft 412 kts 206°
2026-05-05 14:09 34.19248 -15.24690 34152 ft 414 kts 206°
2026-05-05 14:10 34.13903 -15.27301 34157 ft 415 kts 206°
2026-05-05 14:10 34.08538 -15.29903 34158 ft 415 kts 205°
2026-05-05 14:11 34.03169 -15.32505 34163 ft 416 kts 205°
2026-05-05 14:11 33.97818 -15.35098 34152 ft 416 kts 205°
2026-05-05 14:12 33.92460 -15.37692 34154 ft 417 kts 205°
2026-05-05 14:12 33.87061 -15.40304 34158 ft 417 kts 205°
2026-05-05 14:13 33.81663 -15.42903 34153 ft 417 kts 205°
2026-05-05 14:13 33.76299 -15.45482 34156 ft 417 kts 205°
2026-05-05 14:14 33.70894 -15.48079 34140 ft 418 kts 205°
2026-05-05 14:14 33.65502 -15.50670 34148 ft 419 kts 205°
2026-05-05 14:15 33.60075 -15.53276 34156 ft 419 kts 205°
2026-05-05 14:15 33.54639 -15.55885 34155 ft 420 kts 205°
2026-05-05 14:16 33.49233 -15.58471 34148 ft 420 kts 205°
2026-05-05 14:16 33.43795 -15.61068 34135 ft 420 kts 205°
2026-05-05 14:17 33.38388 -15.63645 34144 ft 421 kts 205°
2026-05-05 14:17 33.32942 -15.66240 34139 ft 421 kts 205°
2026-05-05 14:18 33.27492 -15.68837 34136 ft 421 kts 205°
2026-05-05 14:18 33.22046 -15.71428 34144 ft 421 kts 205°
2026-05-05 14:19 33.16623 -15.73996 34134 ft 421 kts 204°
2026-05-05 14:19 33.11167 -15.76578 34136 ft 422 kts 204°
2026-05-05 14:20 33.05711 -15.79163 34132 ft 422 kts 204°
2026-05-05 14:20 33.00277 -15.81741 34135 ft 422 kts 205°
2026-05-05 14:21 32.94805 -15.84333 34128 ft 422 kts 204°
2026-05-05 14:21 32.89357 -15.86894 34117 ft 422 kts 204°
2026-05-05 14:22 32.83882 -15.89467 34117 ft 423 kts 204°
2026-05-05 14:22 32.78397 -15.92041 34118 ft 423 kts 204°
2026-05-05 14:23 32.72954 -15.94592 34114 ft 423 kts 204°
2026-05-05 14:23 32.67464 -15.97168 34119 ft 424 kts 204°
2026-05-05 14:24 32.61961 -15.99745 34103 ft 423 kts 204°
2026-05-05 14:24 32.56480 -16.02309 34113 ft 423 kts 204°
2026-05-05 14:25 32.51027 -16.04860 34116 ft 422 kts 204°
2026-05-05 14:25 32.45555 -16.07415 34119 ft 423 kts 204°
2026-05-05 14:26 32.40104 -16.09948 34106 ft 422 kts 204°
2026-05-05 14:26 32.34613 -16.12502 34108 ft 422 kts 204°
2026-05-05 14:27 32.29173 -16.15037 34097 ft 421 kts 204°
2026-05-05 14:27 32.23713 -16.17572 34097 ft 421 kts 204°
2026-05-05 14:28 32.18246 -16.20102 34095 ft 422 kts 204°
2026-05-05 14:28 32.12812 -16.22615 34090 ft 422 kts 204°
2026-05-05 14:29 32.07321 -16.25152 34079 ft 423 kts 203°
2026-05-05 14:29 32.01829 -16.27689 34078 ft 423 kts 203°
2026-05-05 14:30 31.96370 -16.30209 34083 ft 424 kts 203°
2026-05-05 14:30 31.90871 -16.32743 34080 ft 424 kts 203°
2026-05-05 14:31 31.85395 -16.35261 34083 ft 424 kts 203°
2026-05-05 14:31 31.79900 -16.37787 34081 ft 425 kts 203°
2026-05-05 14:32 31.74368 -16.40321 34092 ft 425 kts 203°
2026-05-05 14:32 31.68894 -16.42826 34091 ft 424 kts 203°
2026-05-05 14:33 31.63374 -16.45356 34101 ft 424 kts 203°
2026-05-05 14:33 31.57865 -16.47877 34100 ft 424 kts 203°
2026-05-05 14:34 31.52381 -16.50377 34094 ft 424 kts 203°
2026-05-05 14:34 31.46907 -16.52868 34105 ft 423 kts 203°
2026-05-05 14:35 31.41314 -16.55042 34103 ft 425 kts 192°
2026-05-05 14:35 31.35392 -16.55151 34103 ft 428 kts 177°
2026-05-05 14:36 31.29487 -16.54527 34101 ft 428 kts 177°
2026-05-05 14:36 31.23545 -16.53921 34081 ft 428 kts 178°
2026-05-05 14:37 31.17609 -16.53312 34078 ft 428 kts 178°
2026-05-05 14:37 31.11711 -16.52707 34082 ft 428 kts 178°
2026-05-05 14:38 31.05767 -16.52090 34088 ft 428 kts 178°
2026-05-05 14:38 30.99831 -16.51483 34089 ft 427 kts 178°
2026-05-05 14:39 30.93941 -16.50880 34093 ft 426 kts 179°
2026-05-05 14:39 30.88019 -16.50272 34097 ft 425 kts 179°
2026-05-05 14:40 30.83121 -16.49778 34097 ft 425 kts 180°
2026-05-05 14:40 30.76268 -16.49087 34092 ft 425 kts 179°
2026-05-05 14:41 30.71369 -16.48585 34087 ft 424 kts 181°
2026-05-05 14:41 30.65512 -16.47986 34116 ft 420 kts 182°
2026-05-05 14:42 30.59686 -16.47392 34117 ft 418 kts 182°
2026-05-05 14:42 30.53935 -16.46810 34112 ft 416 kts 182°
2026-05-05 14:43 30.48156 -16.46228 34106 ft 415 kts 182°
2026-05-05 14:43 30.42413 -16.45649 34097 ft 413 kts 183°
2026-05-05 14:44 30.36736 -16.45075 34108 ft 410 kts 183°
2026-05-05 14:44 30.31053 -16.44505 34104 ft 408 kts 183°
2026-05-05 14:45 30.25422 -16.43936 34097 ft 407 kts 183°
2026-05-05 14:45 30.19778 -16.43362 34086 ft 406 kts 183°
2026-05-05 14:46 30.14172 -16.42799 34073 ft 405 kts 184°
2026-05-05 14:46 30.08554 -16.42240 34079 ft 404 kts 184°
2026-05-05 14:47 30.02946 -16.41670 34075 ft 404 kts 184°
2026-05-05 14:47 29.97342 -16.41103 34073 ft 403 kts 184°
2026-05-05 14:48 29.91778 -16.40555 34058 ft 403 kts 185°
2026-05-05 14:48 29.86201 -16.39993 34092 ft 400 kts 186°
2026-05-05 14:49 29.80660 -16.39439 34103 ft 398 kts 186°
2026-05-05 14:49 29.75176 -16.38896 34100 ft 396 kts 186°
2026-05-05 14:50 29.69689 -16.38352 34093 ft 395 kts 186°
2026-05-05 14:50 29.64208 -16.37812 34082 ft 393 kts 187°
2026-05-05 14:51 29.61523 -16.37928 34081 ft 379 kts 198°
2026-05-05 14:51 29.59037 -16.38613 34077 ft 367 kts 208°
2026-05-05 14:51 29.54734 -16.41450 34071 ft 352 kts 225°
2026-05-05 14:52 29.50966 -16.45040 34065 ft 352 kts 224°
2026-05-05 14:52 29.47192 -16.48590 34063 ft 352 kts 224°
2026-05-05 14:53 29.43398 -16.52162 34062 ft 352 kts 224°
2026-05-05 14:53 29.39596 -16.55732 34063 ft 353 kts 224°
2026-05-05 14:54 29.35788 -16.59304 34067 ft 353 kts 224°
2026-05-05 14:54 29.32013 -16.62850 34072 ft 351 kts 224°
2026-05-05 14:55 29.28230 -16.66397 34083 ft 350 kts 224°
2026-05-05 14:55 29.24490 -16.69907 34086 ft 348 kts 224°
2026-05-05 14:56 29.20745 -16.73418 34082 ft 347 kts 224°
2026-05-05 14:56 29.16999 -16.76925 34074 ft 347 kts 224°
2026-05-05 14:57 29.13274 -16.80401 34078 ft 347 kts 224°
2026-05-05 14:57 29.09522 -16.83907 33802 ft 351 kts 224°
2026-05-05 14:58 29.07605 -16.85698 32817 ft 357 kts 224°
2026-05-05 14:58 29.05685 -16.87487 32334 ft 352 kts 223°
2026-05-05 14:58 29.03818 -16.89222 31935 ft 346 kts 223°
2026-05-05 14:58 29.01967 -16.90943 31512 ft 340 kts 223°
2026-05-05 14:59 29.00147 -16.92637 31144 ft 333 kts 223°
2026-05-05 14:59 28.98363 -16.94298 30767 ft 328 kts 223°
2026-05-05 14:59 28.96606 -16.95929 30386 ft 323 kts 223°
2026-05-05 14:59 28.94894 -16.97518 30023 ft 319 kts 223°
2026-05-05 15:00 28.93172 -16.99115 29647 ft 317 kts 223°
2026-05-05 15:00 28.92036 -17.00170 29414 ft 316 kts 223°
2026-05-05 15:00 28.89755 -17.02290 28956 ft 315 kts 223°
2026-05-05 15:00 28.88057 -17.03872 28615 ft 314 kts 223°
2026-05-05 15:01 28.86360 -17.05454 28277 ft 314 kts 223°
2026-05-05 15:01 28.84662 -17.07031 27927 ft 315 kts 223°
2026-05-05 15:01 28.82963 -17.08605 27584 ft 315 kts 223°
2026-05-05 15:01 28.81282 -17.10159 27239 ft 314 kts 223°
2026-05-05 15:02 28.79388 -17.11457 26779 ft 323 kts 206°
2026-05-05 15:02 28.77144 -17.11926 26396 ft 335 kts 192°
2026-05-05 15:02 28.74808 -17.12061 26017 ft 335 kts 191°
2026-05-05 15:02 28.72500 -17.12176 25627 ft 335 kts 191°
2026-05-05 15:03 28.70178 -17.12284 25229 ft 332 kts 192°
2026-05-05 15:03 28.67874 -17.12389 24841 ft 330 kts 192°
2026-05-05 15:03 28.65586 -17.12497 24436 ft 328 kts 192°
2026-05-05 15:03 28.63314 -17.12609 24037 ft 326 kts 192°
2026-05-05 15:04 28.61049 -17.12724 23625 ft 325 kts 192°
2026-05-05 15:04 28.58791 -17.12841 23173 ft 324 kts 191°
2026-05-05 15:04 28.56546 -17.12956 22776 ft 322 kts 191°
2026-05-05 15:04 28.54303 -17.13072 22383 ft 321 kts 191°
2026-05-05 15:05 28.49885 -17.13299 21618 ft 318 kts 191°
2026-05-05 15:05 28.47673 -17.13411 21232 ft 317 kts 191°
2026-05-05 15:05 28.45472 -17.13522 20851 ft 316 kts 191°
2026-05-05 15:06 28.43275 -17.13633 20458 ft 314 kts 191°
2026-05-05 15:06 28.41096 -17.13740 20096 ft 312 kts 191°
2026-05-05 15:06 28.38936 -17.13846 19730 ft 310 kts 191°
2026-05-05 15:06 28.36781 -17.13953 19359 ft 309 kts 191°
2026-05-05 15:07 28.34637 -17.14060 18998 ft 308 kts 191°
2026-05-05 15:07 28.32516 -17.14167 18632 ft 308 kts 190°
2026-05-05 15:07 28.30373 -17.14271 18264 ft 307 kts 190°
2026-05-05 15:07 28.28233 -17.14375 17865 ft 307 kts 190°
2026-05-05 15:08 28.26102 -17.14479 17507 ft 306 kts 189°
2026-05-05 15:08 28.23977 -17.14587 17149 ft 305 kts 189°
2026-05-05 15:08 28.21860 -17.14698 16797 ft 304 kts 189°
2026-05-05 15:08 28.19770 -17.14807 16452 ft 303 kts 189°
2026-05-05 15:09 28.17657 -17.14915 16100 ft 303 kts 189°
2026-05-05 15:09 28.15553 -17.15018 15753 ft 301 kts 188°
2026-05-05 15:09 28.13479 -17.15117 15402 ft 300 kts 189°
2026-05-05 15:09 28.11398 -17.15216 15094 ft 297 kts 189°
2026-05-05 15:10 28.09337 -17.15316 14758 ft 295 kts 188°
2026-05-05 15:10 28.07280 -17.15423 14420 ft 296 kts 188°
2026-05-05 15:10 28.05226 -17.15531 14082 ft 296 kts 188°
2026-05-05 15:10 28.03172 -17.15637 13722 ft 295 kts 188°
2026-05-05 15:11 28.01126 -17.15740 13369 ft 294 kts 188°
2026-05-05 15:11 27.99111 -17.15840 13028 ft 293 kts 187°
2026-05-05 15:11 27.97076 -17.15940 12682 ft 292 kts 187°
2026-05-05 15:11 27.95054 -17.16041 12338 ft 291 kts 187°
2026-05-05 15:12 27.93036 -17.16140 11994 ft 290 kts 186°
2026-05-05 15:12 27.91012 -17.15900 11576 ft 297 kts 169°
2026-05-05 15:12 27.89054 -17.15058 11095 ft 303 kts 161°
2026-05-05 15:12 27.87127 -17.14060 10725 ft 305 kts 152°
2026-05-05 15:13 27.85641 -17.12359 10451 ft 310 kts 122°
2026-05-05 15:13 27.85091 -17.10005 10091 ft 316 kts 90°
2026-05-05 15:13 27.85599 -17.07597 9711 ft 316 kts 69°
2026-05-05 15:13 27.86424 -17.05323 9321 ft 315 kts 67°
2026-05-05 15:14 27.87299 -17.03062 8939 ft 312 kts 66°
2026-05-05 15:14 27.88178 -17.00827 8577 ft 309 kts 66°
2026-05-05 15:14 27.89045 -16.98609 8231 ft 306 kts 66°
2026-05-05 15:14 27.89892 -16.96416 7882 ft 302 kts 66°
2026-05-05 15:15 27.90720 -16.94243 7528 ft 299 kts 67°
2026-05-05 15:15 27.91532 -16.92091 7182 ft 295 kts 67°
2026-05-05 15:15 27.92309 -16.90019 7057 ft 283 kts 67°
2026-05-05 15:15 27.93061 -16.88011 6936 ft 271 kts 67°
2026-05-05 15:16 27.93784 -16.86087 6784 ft 261 kts 66°
2026-05-05 15:16 27.94522 -16.84226 6502 ft 257 kts 65°
2026-05-05 15:16 27.95273 -16.82396 6109 ft 257 kts 65°
2026-05-05 15:16 27.96127 -16.80589 5413 ft 263 kts 59°
2026-05-05 15:17 27.96950 -16.78730 4736 ft 266 kts 66°
2026-05-05 15:17 27.97646 -16.76775 4029 ft 268 kts 68°
2026-05-05 15:17 27.98322 -16.74803 3351 ft 269 kts 68°
2026-05-05 15:17 27.98995 -16.72871 2827 ft 263 kts 67°
2026-05-05 15:18 27.99643 -16.71017 2467 ft 242 kts 67°
2026-05-05 15:18 28.00235 -16.69323 2186 ft 220 kts 65°
2026-05-05 15:18 28.00772 -16.67782 1881 ft 201 kts 65°
2026-05-05 15:18 28.01250 -16.66412 1637 ft 173 kts 66°
2026-05-05 15:19 28.01660 -16.65237 1417 ft 149 kts 68°
2026-05-05 15:19 28.02016 -16.64219 1232 ft 132 kts 65°
2026-05-05 15:19 28.02353 -16.63255 1066 ft 132 kts 68°
2026-05-05 15:19 28.02688 -16.62297 898 ft 130 kts 69°
2026-05-05 15:20 28.03015 -16.61356 747 ft 129 kts 74°
2026-05-05 15:20 28.03352 -16.60397 524 ft 133 kts 75°
2026-05-05 15:20 28.03694 -16.59413 385 ft 133 kts 73°
2026-05-05 15:20 28.04031 -16.58461 219 ft 128 kts 74°
2026-05-05 15:21 28.04313 -16.57627 194 ft 94 kts 69°
2026-05-05 15:21 28.04492 -16.57118 205 ft 46 kts 64°
2026-05-05 15:21 28.04656 -16.56877 208 ft 24 kts 47°
2026-05-05 15:21 28.04741 -16.56799 220 ft 11 kts 360°
2026-05-05 15:22 28.04775 -16.56858 219 ft 10 kts 264°
2026-05-05 15:22 28.04752 -16.56929 220 ft 9 kts 248°
2026-05-05 15:22 28.04730 -16.56993 221 ft 8 kts 248°
2026-05-05 15:22 28.04709 -16.57051 222 ft 8 kts 248°
2026-05-05 15:23 28.04691 -16.57107 224 ft 7 kts 251°
2026-05-05 15:23 28.04721 -16.57160 223 ft 12 kts 331°
2026-05-05 15:23 28.04782 -16.57208 226 ft 11 kts 288°
2026-05-05 15:23 28.04751 -16.57320 227 ft 20 kts 249°
2026-05-05 15:24 28.04702 -16.57459 225 ft 17 kts 246°
2026-05-05 15:24 28.04660 -16.57569 224 ft 9 kts 249°
2026-05-05 15:24 28.04678 -16.57608 226 ft 5 kts 328°
2026-05-05 15:24 28.04710 -16.57622 226 ft 5 kts 338°
2026-05-05 15:25 28.04731 -16.57630 227 ft 0 kts 339°